Skip Page Navigation
NASA JPL Caltech
NASA Logo - Jet Propulsion Laboratory + View the NASA Portal
+ Center for Near-Earth Object Studies
JPL Home Earth Solar System Stars & Galaxies Technology
JPL Solar System Dynamics
BODIES ORBITS EPHEMERIDES TOOLS PHYSICAL DATA DISCOVERY FAQ SITE MAP
IMPORTANT: The SSD Announcement email list is now available. Major changes are coming in the near future, including possible hostname and/or URL changes. To be notified of such changes, subscribe to this email list.

Please visit this page for more details.


JPL Small-Body Database Browser
Search: [ help ]  
1025 Riema (A923 PG)
Classification: Inner Main-belt Asteroid          SPK-ID: 2001025
Ephemeris | Orbit Diagram | Orbital Elements | Mission Design | Physical Parameters | Discovery Circumstances ]

[ show orbit diagram ]
Orbital Elements at Epoch 2458600.5 (2019-Apr-27.0) TDB
Reference: JPL 33 (heliocentric ecliptic J2000)
 Element Value Uncertainty (1-sigma)   Units 
e .03929288849622594 4.2789e-08  
a 1.979167083397307 4.4e-09 au
q 1.901399891873976 8.497e-08 au
i 26.86093189382749 5.0614e-06 deg
node 163.3799265355146 7.7103e-06 deg
peri 348.9212192039365 4.9953e-05 deg
M 314.8584634130396 4.9836e-05 deg
tp 2458728.025182353434
(2019-Sep-01.52518235)
0.0001408 TDB
period 1017.002723396387
2.78
3.3914e-06
9.285e-09
d
yr
n .3539813529680063 1.1804e-09 deg/d
Q 2.056934274920638 4.5728e-09 au
  Orbit Determination Parameters
   # obs. used (total)      2174  
   data-arc span      34947 days (95.68 yr)  
   first obs. used      1923-08-13  
   last obs. used      2019-04-18  
   planetary ephem.      DE431  
   SB-pert. ephem.      SB431-N16  
   condition code      0  
   norm. resid. RMS      .39648  
   source      ORB  
   producer      Otto Matic  
   solution date      2019-May-29 19:17:56  

Additional Information
 Earth MOID = .911444 au 
 Jupiter MOID = 2.92294 au 
 T_jup = 3.729 
[ show covariance matrix ]

Ephemeris | Orbit Diagram | Orbital Elements | Mission Design | Physical Parameters | Discovery Circumstances ]

Physical Parameter Table
Parameter Symbol Value Units Sigma Reference Notes
absolute magnitude H 12.4   n/a MPO425809  
diameter diameter 4.605 km 0.171 urn:nasa:pds:neowise_diameters_albedos::2.0[mainbelt] (http://adsabs.harvard.edu/abs/2012ApJ...759L...8M)  
rotation period rot_per 3.588 h n/a LCDB (Rev. 2019-January); Warner et al., 2009 Published Reference List:
[Stephens, R.D. (2003) Minor Planet Bull. 30, 69-70.]
[Warner, B.D. (2009) Minor Planet Bull. 36, 172-176.]
[Warner, B.D. (2013). Minor Planet Bull. 40, 26-29.]
[Warner, B.D. (2014) Minor Planet Bull. 41, 144-155.]
[Warner, B.D. (2016) Minor Planet Bull. 43, 57-65.]
[Behrend, R. (2017) Observatoire de Geneve web site, http://obswww.unige.ch/~behrend/page_cou.html]
[Warner, B.D. (2017) Minor Planet Bull. 44, 213-219.]
[Tan, H.; Yeh, T.; Li, B.; Gao, X. (2018) Minor Planet Bull. 45, 57-59.]
geometric albedo albedo 1.000   0.000 urn:nasa:pds:neowise_diameters_albedos::2.0[mainbelt] (http://adsabs.harvard.edu/abs/2012ApJ...759L...8M)  
B-V BV 0.714   0.022 EAR-A-5-DDR-UBV-MEAN-VALUES-V1.2 #obs=1; phase=28.96 deg.
U-B UB 0.294   0.037 EAR-A-5-DDR-UBV-MEAN-VALUES-V1.2 #obs=1; phase=28.96 deg.
Tholen spectral type spec_T E   n/a EAR-A-5-DDR-TAXONOMY-V4.0 used 7 color indices; used ground-based radiometric albedo
SMASSII spectral type spec_B Xe   n/a EAR-A-5-DDR-TAXONOMY-V4.0 based on a high-resolution spectrum by Xu et al. (1995) or Bus and Binzel (2002)

1025 Riema (A923 PG)          Discovered 1923-Aug-12 by Reinmuth, K. at Heidelberg
Reference: DISCOVERY.DBLast Updated: 2003-08-29

Alternate Designations
 A923 PG = A923 QA 
Ephemeris | Orbit Diagram | Orbital Elements | Mission Design | Physical Parameters | Discovery Circumstances ]
ABOUT SSD CREDITS/AWARDS PRIVACY/COPYRIGHT GLOSSARY LINKS
FirstGov 2019-Dec-06 23:20 UT
(server date/time)  
NASA Home Page
Site Manager:   Ryan S. Park
Webmaster  Alan B. Chamberlin